Tracking 30058 objects as of 9-Dec-2024
HD Live streaming from Space Station
objects crossing your sky now

COSMOS 1348

Track COSMOS 1348 now!
COSMOS 1348 is classified as:


NORAD ID: 13124
Int'l Code: 1982-029A
Perigee: 6,570.5 km
Apogee: 33,849.0 km
Inclination: 72.0 °
Period: 718.8 minutes
Semi major axis: 26580 km
RCS: 16.1516 m2 (large)
Launch date: April 7, 1982
Source: Commonwealth of Independent States (former USSR) (CIS)
Launch site: PLESETSK MISSILE AND SPACE COMPLEX (PKMTR)
Your satellite tracking list
Your tracking list is empty




NASA's NSSDC Master Catalog

Two Line Element Set (TLE):
1 13124U 82029A   24342.46849840  .00000574  00000-0  00000-0 0  9996
2 13124  71.9585 166.0293 5131264 348.4332 202.7585  2.00333137312236
Source of the keplerian elements: AFSPC